MILESOVKA Weather Reports


Display with metric or nautical units.
time (UTC)temp
F
wind
direction
speed
MPH
gust
MPH
rain 1hr
in
rain 24hr
in
rain mn
in
humidity
%
barometer
mb
20260901141945 68 270 12.0 0.0 0.00 0.00 0.00 60
20260901131845 66 290 12.0 0.0 0.00 0.00 0.00 63
20260901121745 64 280 12.0 0.0 0.00 0.00 0.00 67
20260901111845 63 280 14.0 26.0 0.00 0.00 0.00 72
20260901102045 61 290 14.0 26.0 0.00 0.00 0.00 77
20260901091745 57 290 22.0 33.0 0.00 0.00 0.00 87
20260901081946 55 290 16.0 0.0 0.00 0.00 0.00 93
20260901071945 54 270 20.0 0.0 0.00 0.00 0.00 93
20260901061745 54 270 22.0 0.0 0.00 0.00 0.00 93
20260901051845 52 260 20.0 31.0 0.00 0.00 0.00 99
20260901042044 52 270 22.0 0.0 0.00 0.00 0.00 99
20260901031745 54 270 24.0 0.0 0.00 0.00 0.00 93
20260901021944 52 280 22.0 0.0 0.00 0.00 0.00 93
20260901011946 54 280 20.0 0.0 0.00 0.00 0.00 87
20260901001744 54 290 24.0 38.0 0.00 0.00 0.00 87
20260831231900 55 260 26.0 38.0 0.00 0.00 0.00 87
20260831222046 57 260 29.0 40.0 0.00 0.00 0.00 82
20260831211745 59 270 29.0 40.0 0.00 0.00 0.00 77
20260831201945 61 260 24.0 0.0 0.00 0.00 0.00 72
20260831191946 61 260 26.0 0.0 0.00 0.00 0.00 72
20260831181746 63 270 20.0 0.0 0.00 0.00 0.00 72
20260831171945 63 260 24.0 36.0 0.00 0.00 0.00 67
20260831162046 64 250 22.0 33.0 0.00 0.00 0.00 67
20260831151746 66 240 16.0 26.0 0.00 0.00 0.00 68